User: anonymous   Login
Location: Unspecified
(0.0000°N, 0.0000°E)
Time: 19:10:50
(UTC+01:00)
Language:

Iridium 33 - Orbit

View from above orbital plane
View from above orbital plane
View from above satellite
View from above satellite

Ground track
Ground track

The orbit data is extracted from the following two-line orbital elements,

1 24946U 97051C   15028.32014203  .00000209  00000-0  68784-4 0  2506
2 24946 086.3891 291.1562 0007915 185.1067 314.9738 14.33297839909280
Epoch (UTC): 28 January 2015 07:41:00
Eccentricity: 0.0007915
inclination: 86.3891°
perigee height: 775 km
apogee height: 786 km
right ascension of ascending node: 291.1562°
argument of perigee: 185.1067°
revolutions per day: 14.33297839
mean anomaly at epoch: 314.9738°
orbit number at epoch: 90928

The dashed part of the orbit path shows where the satellite is in the earth's shadow,  

DLR